WX2NJ-13 Weather Reports


Display with metric or nautical units.
time (UTC)temp
F
wind
direction
speed
MPH
gust
MPH
rain 1hr
in
rain 24hr
in
rain mn
in
humidity
%
barometer
mb
20171217080430 33 281 0.0 0.0 0.00 0.00 0.00 88 1024.1
20171217075932 33 281 0.0 0.0 0.00 0.00 0.00 88 1024.2
20171217075431 34 281 0.0 0.0 0.00 0.00 0.00 87 1024.1
20171217074930 34 281 0.0 0.0 0.00 0.00 0.00 87 1024.1
20171217074431 34 281 0.0 0.0 0.00 0.00 0.00 87 1024.1
20171217073932 34 281 0.0 0.0 0.00 0.00 0.00 87 1024.2
20171217073431 34 281 0.0 0.0 0.00 0.00 0.00 87 1024.2
20171217072932 35 281 0.0 0.0 0.00 0.00 0.00 87 1024.2
20171217072433 35 281 0.0 0.0 0.00 0.00 0.00 86 1024.3
20171217071930 35 281 0.0 0.0 0.00 0.00 0.00 86 1024.3
20171217071431 35 281 0.0 0.0 0.00 0.00 0.00 86 1024.2
20171217070932 35 281 0.0 0.0 0.00 0.00 0.00 85 1024.1
20171217070430 35 281 0.0 0.0 0.00 0.00 0.00 85 1024.0
20171217065931 35 281 0.0 0.0 0.00 0.00 0.00 86 1023.8
20171217065432 35 281 0.0 0.0 0.00 0.00 0.00 86 1023.7
20171217064931 35 281 0.0 0.0 0.00 0.00 0.00 86 1023.8
20171217064432 35 281 0.0 0.0 0.00 0.00 0.00 86 1023.7
20171217063933 35 281 0.0 0.0 0.00 0.00 0.00 85 1023.5
20171217063432 35 281 0.0 0.0 0.00 0.00 0.00 85 1023.5
20171217062933 35 281 0.0 0.0 0.00 0.00 0.00 85 1023.4
20171217062434 35 281 0.0 0.0 0.00 0.00 0.00 85 1023.3
20171217061933 35 281 0.0 0.0 0.00 0.00 0.00 85 1023.2
20171217061433 35 281 0.0 0.0 0.00 0.00 0.00 85 1023.1
20171217060934 35 281 0.0 0.0 0.00 0.00 0.00 85 1023.1
20171217060431 35 281 0.0 0.0 0.00 0.00 0.00 84 1023.1
20171217055932 35 281 0.0 0.0 0.00 0.00 0.00 84 1023.0
20171217055433 35 281 0.0 0.0 0.00 0.00 0.00 83 1023.0
20171217054930 35 281 0.0 0.0 0.00 0.00 0.00 83 1023.0
20171217054431 35 281 0.0 0.0 0.00 0.00 0.00 83 1023.0
20171217053932 35 281 0.0 0.0 0.00 0.00 0.00 82 1023.0
20171217053431 35 281 0.0 0.0 0.00 0.00 0.00 82 1023.1
20171217052932 35 281 0.0 0.0 0.00 0.00 0.00 82 1023.1
20171217052433 35 281 0.0 0.0 0.00 0.00 0.00 82 1023.1
20171217051931 35 281 0.0 0.0 0.00 0.00 0.00 82 1023.2
20171217051432 36 281 0.0 0.0 0.00 0.00 0.00 81 1023.3
20171217050935 36 281 0.0 0.0 0.00 0.00 0.00 81 1023.3
20171217050433 36 281 0.0 0.0 0.00 0.00 0.00 81 1023.2
20171217045933 36 281 0.0 0.0 0.00 0.00 0.00 81 1023.1
20171217045435 36 281 0.0 0.0 0.00 0.19 0.00 81 1023.0
20171217044933 36 281 0.0 0.0 0.00 0.19 0.00 81 1022.9
20171217044434 36 281 0.0 0.0 0.00 0.19 0.00 81 1022.9
20171217043935 36 281 0.0 0.0 0.00 0.19 0.00 80 1022.9
20171217043434 36 281 0.0 0.0 0.00 0.19 0.00 80 1022.8
20171217042934 36 281 0.0 0.0 0.00 0.19 0.00 80 1022.8
20171217042435 37 281 0.0 0.0 0.00 0.19 0.00 79 1022.7
20171217041934 37 281 0.0 0.0 0.00 0.19 0.00 79 1022.6
20171217041435 37 281 0.0 0.0 0.00 0.19 0.00 78 1022.6
20171217040936 37 281 0.0 0.0 0.00 0.19 0.00 79 1022.6
20171217040435 37 281 0.0 0.0 0.00 0.19 0.00 79 1022.5
20171217035936 37 281 0.0 0.0 0.00 0.19 0.00 79 1022.5
20171217035437 37 281 0.0 0.0 0.00 0.19 0.00 78 1022.5
20171217034936 37 281 0.0 0.0 0.00 0.19 0.00 78 1022.5
20171217034437 37 281 0.0 0.0 0.00 0.19 0.00 78 1022.5
20171217033938 37 301 0.0 0.0 0.00 0.19 0.00 77 1022.6
20171217033434 37 305 0.0 3.0 0.00 0.19 0.00 78 1022.5
20171217032936 37 177 0.0 0.0 0.00 0.19 0.00 78 1022.5
20171217032437 37 15 0.0 0.0 0.00 0.19 0.00 77 1022.4
20171217031936 37 15 1.0 0.0 0.00 0.19 0.00 77 1022.4
20171217031435 37 314 0.0 0.0 0.00 0.19 0.00 77 1022.3
20171217030936 37 276 0.0 0.0 0.00 0.19 0.00 77 1022.3
20171217030434 37 124 0.0 0.0 0.00 0.19 0.00 77 1022.1
20171217025936 37 236 0.0 0.0 0.00 0.19 0.00 78 1022.0
20171217025437 37 221 0.0 0.0 0.00 0.19 0.00 78 1021.9
20171217024934 37 242 0.0 0.0 0.00 0.19 0.00 78 1021.9
20171217024435 37 226 1.0 0.0 0.00 0.19 0.00 77 1021.9
20171217023937 37 311 0.0 0.0 0.00 0.19 0.00 77 1021.9
20171217023433 37 329 0.0 0.0 0.00 0.19 0.00 77 1021.8
20171217022935 37 246 2.0 1.0 0.00 0.19 0.00 77 1021.7
20171217022436 38 277 0.0 0.0 0.00 0.19 0.00 77 1021.7
20171217021933 38 323 0.0 0.0 0.00 0.19 0.00 77 1021.6
20171217021435 38 231 0.0 0.0 0.00 0.19 0.00 76 1021.5
20171217020936 38 231 0.0 0.0 0.00 0.19 0.00 76 1021.4
20171217020434 38 215 0.0 0.0 0.00 0.19 0.00 76 1021.4
20171217015936 38 243 0.0 0.0 0.00 0.19 0.00 76 1021.4
20171217015437 38 274 0.0 2.0 0.00 0.19 0.00 75 1021.3
20171217014935 38 281 3.0 2.0 0.00 0.19 0.00 75 1021.2
20171217014436 38 321 2.0 0.0 0.00 0.19 0.00 75 1021.2
20171217013935 38 204 0.0 1.0 0.00 0.19 0.00 76 1021.1
20171217013434 38 266 1.0 3.0 0.00 0.19 0.00 75 1021.2
20171217012935 38 333 0.0 3.0 0.00 0.19 0.00 75 1021.1
20171217012435 38 212 1.0 2.0 0.00 0.19 0.00 75 1021.0
20171217011934 38 288 1.0 0.0 0.00 0.19 0.00 75 1021.0
20171217011435 38 347 1.0 0.0 0.00 0.19 0.00 75 1020.9
20171217010935 38 210 2.0 1.0 0.00 0.19 0.00 75 1020.8
20171217010433 38 181 2.0 1.0 0.00 0.19 0.00 75 1020.9
20171217005932 38 238 1.0 0.0 0.00 0.19 0.00 75 1020.8
20171217005433 38 225 4.0 2.0 0.00 0.19 0.00 75 1020.8
20171217004931 38 285 1.0 0.0 0.00 0.19 0.00 75 1020.7
20171217004433 37 215 2.0 0.0 0.00 0.19 0.00 75 1020.6
20171217003934 37 173 0.0 0.0 0.00 0.19 0.00 75 1020.6
20171217003432 37 180 0.0 0.0 0.00 0.19 0.00 76 1020.5
20171217002934 37 232 1.0 0.0 0.00 0.19 0.00 75 1020.3
20171217002435 37 207 1.0 2.0 0.00 0.19 0.00 75 1020.2
20171217001934 37 195 0.0 1.0 0.00 0.19 0.00 75 1020.2
20171217001435 37 232 0.0 0.0 0.00 0.19 0.00 75 1020.1
20171217000936 37 207 0.0 0.0 0.00 0.19 0.00 75 1020.0
20171217000434 37 240 0.0 0.0 0.00 0.19 0.00 75 1019.9
20171216235936 37 200 0.0 0.0 0.00 0.19 0.00 74 1019.9
20171216235437 37 201 0.0 0.0 0.00 0.19 0.00 74 1019.7
20171216234935 37 255 0.0 0.0 0.00 0.19 0.00 74 1019.6
20171216234435 37 255 0.0 0.0 0.00 0.19 0.00 74 1019.6
20171216233937 37 284 1.0 0.0 0.00 0.19 0.00 74 1019.5
20171216233435 37 271 1.0 1.0 0.00 0.19 0.00 75 1019.6
20171216232937 37 138 0.0 0.0 0.00 0.19 0.00 75 1019.7
20171216232437 37 248 1.0 0.0 0.00 0.19 0.00 74 1019.5
20171216231935 37 288 1.0 0.0 0.00 0.19 0.00 75 1019.5
20171216231437 37 188 2.0 1.0 0.00 0.19 0.00 74 1019.3
20171216230938 37 295 1.0 1.0 0.00 0.19 0.00 74 1019.2
20171216230436 37 294 1.0 0.0 0.00 0.19 0.00 74 1019.1
20171216225938 37 305 0.0 0.0 0.00 0.19 0.00 74 1018.9
20171216225439 37 228 0.0 0.0 0.00 0.19 0.00 74 1018.8
20171216224936 38 228 0.0 0.0 0.00 0.19 0.00 74 1018.8
20171216224437 38 338 0.0 0.0 0.00 0.19 0.00 73 1018.8
20171216223938 38 212 0.0 3.0 0.00 0.19 0.00 72 1018.6
20171216223437 38 162 0.0 0.0 0.00 0.19 0.00 72 1018.5
20171216222938 38 270 0.0 0.0 0.00 0.19 0.00 72 1018.5
20171216222439 38 256 0.0 0.0 0.00 0.19 0.00 72 1018.4
20171216221938 38 191 0.0 0.0 0.00 0.19 0.00 71 1018.2
20171216221439 39 191 0.0 0.0 0.00 0.19 0.00 71 1018.1
20171216220940 39 293 0.0 0.0 0.00 0.19 0.00 70 1018.0
20171216220438 39 293 0.0 0.0 0.00 0.19 0.00 69 1017.8
20171216215939 39 235 0.0 1.0 0.00 0.19 0.00 69 1017.7
20171216215441 39 205 1.0 0.0 0.00 0.19 0.00 69 1017.6
20171216214939 40 305 2.0 4.0 0.00 0.19 0.00 69 1017.4
20171216214441 40 6 2.0 2.0 0.00 0.19 0.00 69 1017.5
20171216213942 40 210 3.0 2.0 0.00 0.19 0.00 68 1017.3
20171216213439 40 273 3.0 2.0 0.00 0.19 0.00 68 1017.5
20171216212940 40 217 5.0 5.0 0.00 0.19 0.00 68 1017.4
20171216212439 40 208 3.0 0.0 0.00 0.19 0.00 67 1017.3
20171216211935 40 248 5.0 3.0 0.00 0.19 0.00 68 1017.2
20171216211436 40 187 5.0 3.0 0.00 0.19 0.00 70 1017.3
20171216210938 40 184 2.0 0.0 0.00 0.19 0.00 68 1017.2
20171216210436 40 203 4.0 1.0 0.00 0.19 0.00 69 1017.1
20171216205937 40 222 2.0 2.0 0.00 0.19 0.00 69 1017.1
20171216205439 40 256 0.0 0.0 0.00 0.19 0.00 69 1017.0
20171216204937 40 228 6.0 2.0 0.00 0.19 0.00 68 1017.0
20171216204439 40 298 4.0 0.0 0.00 0.19 0.00 69 1016.9
20171216203940 40 293 0.0 3.0 0.00 0.19 0.00 68 1016.8
20171216203438 40 60 0.0 0.0 0.00 0.19 0.00 70 1016.8
20171216202939 40 248 4.0 2.0 0.00 0.19 0.00 69 1016.7
20171216202440 41 239 3.0 7.0 0.00 0.19 0.00 70 1016.6
20171216201939 41 240 3.0 3.0 0.00 0.19 0.00 70 1016.7
20171216201440 41 284 2.0 1.0 0.00 0.19 0.00 70 1016.6
20171216200941 41 240 3.0 1.0 0.00 0.19 0.00 69 1016.6
20171216200440 41 30 2.0 3.0 0.00 0.19 0.00 70 1016.6
20171216195941 41 345 2.0 2.0 0.00 0.19 0.00 70 1016.4
20171216195443 41 249 1.0 7.0 0.00 0.19 0.00 70 1016.3
20171216194940 41 203 4.0 1.0 0.00 0.19 0.00 71 1016.3
20171216194442 41 249 4.0 2.0 0.00 0.19 0.00 69 1016.2
20171216193943 40 248 1.0 5.0 0.00 0.19 0.00 70 1016.1
20171216193442 40 226 3.0 5.0 0.00 0.19 0.00 72 1016.1
20171216192943 40 304 5.0 3.0 0.00 0.19 0.00 70 1016.1
20171216192444 40 228 2.0 2.0 0.00 0.19 0.00 72 1016.1
20171216191943 40 316 4.0 2.0 0.00 0.19 0.00 71 1016.1
20171216191441 40 228 1.0 8.0 0.00 0.19 0.00 73 1016.2
20171216190943 40 201 4.0 3.0 0.00 0.19 0.00 72 1016.2
20171216190442 40 267 3.0 2.0 0.00 0.19 0.00 74 1016.4
20171216185943 40 250 1.0 1.0 0.00 0.19 0.00 73 1016.4
20171216185443 40 312 3.0 3.0 0.00 0.19 0.00 73 1016.3
20171216184941 40 316 0.0 3.0 0.00 0.19 0.00 73 1016.3
20171216184442 40 260 5.0 1.0 0.00 0.19 0.00 71 1016.3
20171216183944 40 219 3.0 6.0 0.00 0.19 0.00 72 1016.3
20171216183442 40 236 4.0 8.0 0.00 0.19 0.00 73 1016.3
20171216182944 40 280 1.0 7.0 0.00 0.19 0.00 74 1016.4
20171216182445 40 221 4.0 8.0 0.00 0.19 0.00 72 1016.4
20171216181944 40 284 2.0 7.0 0.00 0.19 0.00 75 1016.5
20171216181443 39 246 3.0 5.0 0.00 0.19 0.00 73 1016.7
20171216180944 39 252 5.0 4.0 0.00 0.19 0.00 75 1017.0
20171216180443 39 183 6.0 1.0 0.00 0.19 0.00 74 1017.3
20171216175944 39 233 4.0 5.0 0.00 0.19 0.00 75 1017.5
20171216175445 39 229 5.0 5.0 0.00 0.19 0.00 75 1017.7
20171216174943 39 255 3.0 0.0 0.00 0.19 0.00 76 1017.6
20171216174445 39 242 6.0 6.0 0.00 0.19 0.00 73 1017.6
20171216173946 39 240 3.0 1.0 0.00 0.19 0.00 74 1017.6
20171216173445 39 293 9.0 7.0 0.00 0.19 0.00 73 1017.8
20171216172946 39 195 5.0 4.0 0.00 0.19 0.00 74 1017.9
20171216172446 39 264 7.0 3.0 0.00 0.19 0.00 73 1018.0
20171216171945 39 301 6.0 3.0 0.00 0.19 0.00 75 1018.1
20171216171446 38 263 5.0 3.0 0.00 0.19 0.00 75 1018.3
20171216170948 38 283 8.0 6.0 0.00 0.19 0.00 74 1018.4
20171216170446 38 263 8.0 6.0 0.00 0.19 0.00 75 1018.5
20171216165947 38 284 3.0 1.0 0.00 0.19 0.00 77 1018.6
20171216165449 38 280 4.0 2.0 0.00 0.19 0.00 76 1018.8
20171216164946 38 228 6.0 4.0 0.00 0.19 0.00 76 1018.9
20171216164448 38 24 4.0 3.0 0.00 0.19 0.00 77 1019.0
20171216163949 38 195 4.0 6.0 0.00 0.19 0.00 76 1019.0
20171216163446 37 315 6.0 5.0 0.00 0.19 0.00 76 1019.1
20171216162945 37 146 4.0 10.0 0.00 0.19 0.00 78 1019.2
20171216162446 37 257 1.0 6.0 0.00 0.19 0.00 79 1019.4
20171216161945 37 245 3.0 0.0 0.00 0.19 0.00 81 1019.5
20171216161446 37 274 4.0 7.0 0.00 0.19 0.00 78 1019.5
20171216160948 36 255 3.0 7.0 0.00 0.19 0.00 78 1019.6
20171216160446 36 252 1.0 5.0 0.00 0.19 0.00 80 1019.6
20171216155947 36 266 3.0 3.0 0.00 0.19 0.00 81 1019.7
20171216155449 36 330 4.0 0.0 0.00 0.19 0.00 81 1019.8
20171216154945 35 278 5.0 7.0 0.00 0.19 0.00 80 1019.9
20171216154445 35 215 5.0 6.0 0.00 0.19 0.00 81 1020.1
20171216153947 35 217 4.0 5.0 0.00 0.19 0.00 82 1020.3
20171216153442 35 328 4.0 5.0 0.00 0.19 0.00 84 1020.2
20171216152942 34 253 4.0 7.0 0.00 0.19 0.00 84 1020.1
20171216152443 34 212 6.0 5.0 0.00 0.19 0.00 85 1020.2
20171216151942 34 208 3.0 1.0 0.00 0.19 0.00 86 1020.3
20171216151443 33 281 2.0 4.0 0.00 0.19 0.00 87 1020.5
20171216150942 33 160 5.0 2.0 0.00 0.19 0.00 87 1020.5
20171216150441 32 238 2.0 10.0 0.00 0.19 0.00 89 1020.5
20171216145942 32 194 5.0 4.0 0.00 0.19 0.00 89 1020.5
20171216145444 31 207 2.0 8.0 0.00 0.19 0.00 90 1020.6
20171216144940 31 249 5.0 2.0 0.00 0.19 0.00 90 1020.6
20171216144441 30 173 2.0 4.0 0.00 0.19 0.00 91 1020.7
20171216143943 30 245 3.0 2.0 0.00 0.19 0.00 92 1020.8
20171216143441 29 125 3.0 4.0 0.00 0.19 0.00 92 1020.9
20171216142942 29 250 5.0 4.0 0.00 0.19 0.00 93 1020.7
20171216142442 28 269 4.0 5.0 0.00 0.19 0.00 93 1020.6
20171216141940 28 356 3.0 3.0 0.00 0.19 0.00 94 1020.5
20171216141441 28 212 2.0 3.0 0.00 0.19 0.00 95 1020.7
20171216140942 27 217 3.0 3.0 0.00 0.19 0.00 95 1020.7
20171216140439 27 248 2.0 1.0 0.00 0.19 0.00 95 1020.6
20171216135940 26 229 0.0 4.0 0.00 0.19 0.00 95 1020.7
20171216135442 25 210 2.0 5.0 0.00 0.19 0.00 96 1020.7
20171216134937 25 191 2.0 1.0 0.00 0.19 0.00 96 1020.7
20171216134435 24 198 2.0 4.0 0.00 0.19 0.00 96 1020.7
20171216133937 24 217 2.0 2.0 0.00 0.19 0.00 96 1020.6
20171216133433 24 225 2.0 4.0 0.00 0.19 0.00 96 1020.6
20171216132932 23 211 2.0 1.0 0.00 0.19 0.00 96 1020.6
20171216132433 23 260 1.0 1.0 0.00 0.19 0.00 96 1020.6
20171216131931 23 283 2.0 1.0 0.00 0.19 0.00 96 1020.5
20171216131433 23 270 1.0 0.0 0.00 0.19 0.00 96 1020.5
20171216130934 23 170 2.0 1.0 0.00 0.19 0.00 96 1020.4
20171216130432 23 239 2.0 1.0 0.00 0.19 0.00 96 1020.3
20171216125933 22 300 3.0 3.0 0.00 0.19 0.00 96 1020.2
20171216125434 22 274 1.0 0.0 0.00 0.19 0.00 96 1020.3
20171216124929 22 249 2.0 0.0 0.00 0.19 0.00 96 1020.3
20171216124430 21 201 3.0 1.0 0.00 0.19 0.00 96 1020.5
20171216123930 21 232 2.0 1.0 0.00 0.19 0.00 96 1020.4
20171216123429 21 319 1.0 1.0 0.00 0.19 0.00 96 1020.3
20171216122930 21 172 3.0 1.0 0.00 0.19 0.00 96 1020.1
20171216122431 21 314 1.0 1.0 0.00 0.19 0.00 96 1020.1
20171216121924 20 233 3.0 3.0 0.00 0.19 0.00 97 1019.8
20171216121425 20 190 3.0 1.0 0.00 0.19 0.00 97 1019.8
20171216120927 20 276 3.0 1.0 0.00 0.19 0.00 97 1019.7
20171216120425 19 297 1.0 1.0 0.00 0.19 0.00 97 1019.7
20171216115927 19 308 1.0 3.0 0.00 0.19 0.00 97 1019.7
20171216115428 19 174 3.0 1.0 0.00 0.19 0.00 97 1019.6
20171216114923 18 249 3.0 2.0 0.00 0.19 0.00 97 1019.5
20171216114424 18 238 3.0 5.0 0.00 0.19 0.00 97 1019.4
20171216113925 18 239 1.0 1.0 0.00 0.19 0.00 97 1019.4
20171216113423 18 207 0.0 2.0 0.00 0.19 0.00 97 1019.3
20171216112925 17 207 0.0 0.0 0.00 0.19 0.00 97 1019.2
20171216112426 17 221 0.0 1.0 0.00 0.19 0.00 97 1019.0
20171216111925 17 179 0.0 0.0 0.00 0.19 0.00 97 1018.9
20171216111426 17 239 1.0 0.0 0.00 0.19 0.00 97 1018.8
20171216110926 17 229 1.0 0.0 0.00 0.19 0.00 96 1018.7
20171216110420 17 271 0.0 0.0 0.00 0.19 0.00 96 1018.6
20171216105920 17 257 0.0 0.0 0.00 0.19 0.00 96 1018.6
20171216105421 17 270 0.0 0.0 0.00 0.19 0.00 97 1018.5
20171216104920 17 219 1.0 1.0 0.00 0.19 0.00 96 1018.4
20171216104421 17 153 0.0 0.0 0.00 0.19 0.00 97 1018.2
20171216103922 17 238 0.0 0.0 0.00 0.19 0.00 97 1018.2
20171216103417 17 242 0.0 0.0 0.00 0.19 0.00 97 1018.2
20171216102918 17 260 0.0 0.0 0.00 0.19 0.00 96 1018.2
20171216102420 17 260 1.0 0.0 0.00 0.19 0.00 96 1018.2
20171216101918 17 197 1.0 0.0 0.00 0.19 0.00 96 1018.2
20171216101419 17 298 0.0 0.0 0.00 0.19 0.00 96 1018.2
20171216100921 17 243 0.0 0.0 0.00 0.19 0.00 97 1018.1
20171216100418 17 257 0.0 0.0 0.00 0.19 0.00 96 1018.1
20171216095920 17 277 0.0 3.0 0.00 0.19 0.00 96 1017.9
20171216095415 17 297 0.0 0.0 0.00 0.19 0.00 96 1017.9
20171216094911 17 266 1.0 1.0 0.00 0.19 0.00 96 1017.8
20171216094411 17 284 2.0 1.0 0.00 0.19 0.00 96 1017.7
20171216093912 17 218 1.0 2.0 0.00 0.19 0.00 96 1017.6
20171216093409 17 318 0.0 1.0 0.00 0.19 0.00 96 1017.5
20171216092908 17 260 0.0 0.0 0.00 0.19 0.00 96 1017.3
20171216092408 17 273 1.0 0.0 0.00 0.19 0.00 96 1017.3
20171216091905 17 253 0.0 0.0 0.00 0.19 0.00 96 1017.2
20171216091406 17 10 0.0 2.0 0.00 0.19 0.00 96 1017.2
20171216090907 17 264 0.0 5.0 0.00 0.19 0.00 96 1017.1
20171216090406 18 301 0.0 2.0 0.00 0.19 0.00 96 1017.0
20171216085905 18 301 0.0 0.0 0.00 0.19 0.00 96 1017.0
20171216085406 18 262 1.0 1.0 0.00 0.19 0.00 96 1016.9
20171216084905 18 226 1.0 2.0 0.00 0.19 0.00 96 1016.9
20171216084406 18 232 1.0 2.0 0.00 0.19 0.00 96 1016.8
20171216083907 18 264 0.0 1.0 0.00 0.19 0.00 96 1016.8
20171216083406 18 256 2.0 4.0 0.00 0.19 0.00 96 1016.8
20171216082906 19 277 0.0 1.0 0.00 0.19 0.00 96 1016.9
20171216082407 19 260 0.0 0.0 0.00 0.19 0.00 97 1016.8
20171216081906 19 176 1.0 0.0 0.00 0.19 0.00 97 1016.8
20171216081407 19 255 0.0 2.0 0.00 0.19 0.00 97 1016.7
20171216080908 19 283 1.0 1.0 0.00 0.19 0.00 97 1016.7